WetterOnline ( https://www.wetteronline.de )

Wetter aktuell Laberweinting

Aktuelles Wetter: Straubing (360m)

6-stündlich | Neueste Meldungen
Ortszeit Temperatur Wetter
Fr, 18.06. 8:00 21.8° C leicht bewölkt
Fr, 18.06. 2:00 19.9° C fast wolkenlos
Do, 17.06. 20:00 29.1° C wolkenlos
Do, 17.06. 14:00 28.6° C wolkenlos
Do, 17.06. 8:00 20.7° C wolkenlos
Do, 17.06. 2:00 17.3° C wolkenlos
Mi, 16.06. 20:00 26.6° C leicht bewölkt
Mi, 16.06. 14:00 27.3° C leicht bewölkt
Ortszeit Temperatur Wetter
Fr, 18.06. 8:30 23.0° C wolkig
Fr, 18.06. 8:20 23.0° C wolkig
Fr, 18.06. 8:10 22.4° C wolkig
Fr, 18.06. 8:00 21.8° C leicht bewölkt
Fr, 18.06. 7:50 21.8° C wolkig
Fr, 18.06. 7:40 22.0° C leicht bewölkt
Fr, 18.06. 7:30 20.3° C fast wolkenlos
Fr, 18.06. 7:00 18.6° C wolkig
Fr, 18.06. 6:30 17.2° C wolkig
Fr, 18.06. 6:00 15.8° C wolkig
Fr, 18.06. 5:30 16.5° C wolkig
Ortszeit Relative Feuchte Sichtweite
Fr, 18.06. 8:00 64% 35 km
Fr, 18.06. 2:00 68% 50 km
Do, 17.06. 20:00 39% >70 km
Do, 17.06. 14:00 41% 50 km
Do, 17.06. 8:00 60% 45 km
Do, 17.06. 2:00 73% 50 km
Mi, 16.06. 20:00 50% 65 km
Mi, 16.06. 14:00 39% 50 km
Ortszeit Relative Feuchte Sichtweite
Fr, 18.06. 8:30 60% 40 km
Fr, 18.06. 8:20 60% -
Fr, 18.06. 8:10 61% -
Fr, 18.06. 8:00 64% 35 km
Fr, 18.06. 7:50 64% -
Fr, 18.06. 7:40 61% -
Fr, 18.06. 7:30 70% 40 km
Fr, 18.06. 7:00 80% 35 km
Fr, 18.06. 6:30 84% 50 km
Fr, 18.06. 6:00 85% 40 km
Fr, 18.06. 5:30 83% 45 km
Ortszeit Niederschlagsmenge Niederschlagsart
Fr, 18.06. 8:00 0.0 l/m2 in 12 Std. -
Fr, 18.06. 2:00 0.0 l/m2 in 6 Std. -
Do, 17.06. 20:00 0.0 l/m2 in 12 Std. -
Do, 17.06. 14:00 0.0 l/m2 in 6 Std. -
Do, 17.06. 8:00 0.0 l/m2 in 12 Std. -
Do, 17.06. 2:00 0.0 l/m2 in 6 Std. -
Mi, 16.06. 20:00 0.0 l/m2 in 12 Std. -
Mi, 16.06. 14:00 0.0 l/m2 in 6 Std. -
Ortszeit Niederschlagsmenge Niederschlagsart
Fr, 18.06. 8:30 0.0 l/m2 in 1 Std. -
Fr, 18.06. 8:20 keine Meldung -
Fr, 18.06. 8:10 keine Meldung -
Fr, 18.06. 8:00 0.0 l/m2 in 1 Std. -
Fr, 18.06. 7:50 keine Meldung -
Fr, 18.06. 7:40 keine Meldung -
Fr, 18.06. 7:30 0.0 l/m2 in 1 Std. -
Fr, 18.06. 7:00 0.0 l/m2 in 1 Std. -
Fr, 18.06. 6:30 0.0 l/m2 in 1 Std. -
Fr, 18.06. 6:00 0.0 l/m2 in 1 Std. -
Fr, 18.06. 5:30 0.0 l/m2 in 1 Std. -
Ortszeit Stärke Spitze Richtung
km/h Bft. km/h Grad Sektor
Fr, 18.06. 8:00 4 1 11 20° N
Fr, 18.06. 2:00 11 2 14 120° SO
Do, 17.06. 20:00 4 1 18 30° NO
Do, 17.06. 14:00 9 2 20 60° NO
Do, 17.06. 8:00 4 1 11 20° N
Do, 17.06. 2:00 0 0 7 - -
Mi, 16.06. 20:00 7 2 25 80° O
Mi, 16.06. 14:00 13 3 22 110° O
Ortszeit Stärke Spitze Richtung
km/h Bft. km/h Grad Sektor
Fr, 18.06. 8:30 4 1 7 10° N
Fr, 18.06. 8:20 4 1 - 10° N
Fr, 18.06. 8:10 4 1 - 50° NO
Fr, 18.06. 8:00 4 1 7 20° N
Fr, 18.06. 7:50 4 1 - 20° N
Fr, 18.06. 7:40 2 1 - 20° N
Fr, 18.06. 7:30 4 1 4 360° N
Fr, 18.06. 7:00 4 1 4 170° S
Fr, 18.06. 6:30 0 0 4 - -
Fr, 18.06. 6:00 4 1 7 290° W
Fr, 18.06. 5:30 4 1 7 250° W
Ortszeit Untergrenze Bedeckung Gattung
total tief tief mittel hoch
Fr, 18.06. 8:00 10500 m 7/8 0/8 - - -
Fr, 18.06. 2:00 10500 m 1/8 0/8 - - -
Do, 17.06. 20:00 - 0/8 0/8 - - -
Do, 17.06. 14:00 - 0/8 0/8 - - -
Do, 17.06. 8:00 - 0/8 0/8 - - -
Do, 17.06. 2:00 - 0/8 0/8 - - -
Mi, 16.06. 20:00 9000 m 8/8 0/8 - - -
Mi, 16.06. 14:00 10500 m 5/8 0/8 - - -
Ortszeit Bedeckungsgrad in Achtel und Wolkenuntergrenze
Fr, 18.06. 8:30 7(10500m) 8(12000m)
Fr, 18.06. 8:20 7(10500m) 8(12000m)
Fr, 18.06. 8:10 8(10500m) 8(12000m)
Fr, 18.06. 8:00 7(10500m)
Fr, 18.06. 7:50 7(10500m)
Fr, 18.06. 7:40 4(12000m)
Fr, 18.06. 7:30 2(10500m)
Fr, 18.06. 7:00 8(10500m)
Fr, 18.06. 6:30 4(10500m) 8(10500m)
Fr, 18.06. 6:00 8(10500m) 8(12000m)
Fr, 18.06. 5:30 8(10500m)
Ortszeit Luftdruck NN (hPa) Tendenz (hPa in 3 Std.)
Fr, 18.06. 8:00 1014 + 0,9
Fr, 18.06. 2:00 1014 + 0,1
Do, 17.06. 20:00 1012 - 0,1
Do, 17.06. 14:00 1013 - 0,5
Do, 17.06. 8:00 1015 + 0,6
Do, 17.06. 2:00 1015 + 0,2
Mi, 16.06. 20:00 1013 - 0,8
Mi, 16.06. 14:00 1015 - 0,7
Ortszeit Luftdruck NN (hPa) Tendenz (hPa in 3 Std.)
Fr, 18.06. 8:30 1014 + 1,0
Fr, 18.06. 8:20 1014 keine Meldung
Fr, 18.06. 8:10 1014 keine Meldung
Fr, 18.06. 8:00 1014 + 0,9
Fr, 18.06. 7:50 1014 keine Meldung
Fr, 18.06. 7:40 1014 keine Meldung
Fr, 18.06. 7:30 1014 + 0,6
Fr, 18.06. 7:00 1014 + 0,5
Fr, 18.06. 6:30 1014 + 0,3
Fr, 18.06. 6:00 1015 + 0,2
Fr, 18.06. 5:30 1014 - 0,3
Ortszeit Schneehöhe (cm)
Fr, 18.06. 8:00 -
Fr, 18.06. 2:00 -
Do, 17.06. 20:00 -
Do, 17.06. 14:00 -
Do, 17.06. 8:00 -
Do, 17.06. 2:00 -
Mi, 16.06. 20:00 -
Mi, 16.06. 14:00 -
Ortszeit Schneehöhe (cm)
Fr, 18.06. 8:30 -
Fr, 18.06. 8:20 -
Fr, 18.06. 8:10 -
Fr, 18.06. 8:00 -
Fr, 18.06. 7:50 -
Fr, 18.06. 7:40 -
Fr, 18.06. 7:30 -
Fr, 18.06. 7:00 -
Fr, 18.06. 6:30 -
Fr, 18.06. 6:00 -
Fr, 18.06. 5:30 -
Link zu dieser Seite / Seite empfehlen

Das Wetter in ...